Location: Eurasberg
(48.3353°N, 11.0839°E)
Time: 13:14:16
(UTC+00:00)

Timation 1 Rocket - Pass Details

Date: 18 April 2026
Orbit: 895 x 908 km, 70.0° (Epoch: 14 May)

Event Time Altitude Azimuth Distance (km) Brightness Sun altitude
Exits shadow 02:55:08 - 282° (WNW) 2,891 6.6 -13.6°
Reaches altitude 10° 02:56:23 10° 291° (WNW) 2,597 6.4 -13.4°
Maximum altitude 03:00:03 16° 329° (NNW) 2,176 6.4 -12.9°
Drops below altitude 10° 03:03:44 10° 7° (N) 2,604 7.3 -12.4°
Sets 03:07:19 0° 28° (NNE) 3,548 8.6 -11.9°
